Stündliche Wetter Bolshie Lupyazhi

Heute, 26 November, Donnerstag

Zeit Temperatur Niederschläge Wind Luftdruck Luftfeuchtigkeit
00:00 -2°C° 0 mm 0 m/S 753 mmHg 95%
01:00 -1°C° 0 mm 1 m/S 754 mmHg 95%
02:00 -1°C° 0 mm 1 m/S 754 mmHg 95%
03:00 -1°C° 0 mm 1 m/S 754 mmHg 96%
04:00 -1°C° 0 mm 1 m/S 754 mmHg 96%
05:00 -1°C° 0 mm 1 m/S 754 mmHg 96%
06:00 -1°C° 0 mm 1 m/S 755 mmHg 96%
07:00 -1°C° 0 mm 1 m/S 755 mmHg 96%
08:00 -1°C° 0 mm 1 m/S 755 mmHg 95%
09:00 -1°C° 0 mm 1 m/S 756 mmHg 94%
10:00 -1°C° 0 mm 1 m/S 756 mmHg 90%
11:00 0°C° 0 mm 1 m/S 755 mmHg 86%
12:00 +1°C° 0 mm 1 m/S 755 mmHg 81%
13:00 +1°C° 0 mm 1 m/S 755 mmHg 82%
14:00 0°C° 0 mm 1 m/S 755 mmHg 83%
15:00 0°C° 0 mm 1 m/S 755 mmHg 84%
16:00 -2°C° 0 mm 2 m/S 755 mmHg 85%
17:00 -2°C° 0 mm 2 m/S 755 mmHg 87%
18:00 -2°C° 0 mm 2 m/S 755 mmHg 88%
19:00 -2°C° 0 mm 3 m/S 754 mmHg 86%
20:00 -2°C° 0 mm 3 m/S 754 mmHg 85%
21:00 -3°C° 0 mm 4 m/S 754 mmHg 83%
22:00 -3°C° 0.4 mm 4 m/S 753 mmHg 87%
23:00 -4°C° 0.4 mm 5 m/S 753 mmHg 91%

Morgen, 27 November, Freitag

Zeit Temperatur Niederschläge Wind Luftdruck Luftfeuchtigkeit
00:00 -4°C° 0.4 mm 5 m/S 752 mmHg 95%
01:00 -2°C° 0.9 mm 5 m/S 752 mmHg 95%
02:00 -2°C° 0.9 mm 5 m/S 752 mmHg 96%
03:00 -2°C° 0.9 mm 5 m/S 751 mmHg 96%
04:00 -1°C° 0.5 mm 5 m/S 751 mmHg 96%
05:00 -1°C° 0.5 mm 4 m/S 750 mmHg 96%
06:00 0°C° 0.5 mm 4 m/S 750 mmHg 96%
07:00 0°C° 0 mm 4 m/S 750 mmHg 95%
08:00 0°C° 0 mm 4 m/S 750 mmHg 94%
09:00 0°C° 0 mm 4 m/S 750 mmHg 93%
10:00 0°C° 0 mm 4 m/S 749 mmHg 91%
11:00 0°C° 0 mm 4 m/S 749 mmHg 88%
12:00 0°C° 0 mm 4 m/S 749 mmHg 86%
13:00 0°C° 0 mm 4 m/S 749 mmHg 86%
14:00 0°C° 0 mm 4 m/S 749 mmHg 86%
15:00 0°C° 0 mm 4 m/S 749 mmHg 87%
16:00 -1°C° 0 mm 4 m/S 749 mmHg 87%
17:00 -1°C° 0 mm 4 m/S 750 mmHg 87%
18:00 -1°C° 0 mm 4 m/S 750 mmHg 88%
19:00 -1°C° 0 mm 4 m/S 750 mmHg 90%
20:00 -1°C° 0 mm 4 m/S 750 mmHg 92%
21:00 -1°C° 0 mm 4 m/S 750 mmHg 94%
22:00 0°C° 0.1 mm 3 m/S 750 mmHg 95%
23:00 0°C° 0.1 mm 3 m/S 751 mmHg 96%

übermorgen, 28 November, Samstag

Zeit Temperatur Niederschläge Wind Luftdruck Luftfeuchtigkeit
00:00 0°C° 0.1 mm 3 m/S 751 mmHg 97%
01:00 0°C° 0.2 mm 3 m/S 751 mmHg 97%
02:00 0°C° 0.2 mm 3 m/S 751 mmHg 97%
03:00 0°C° 0.2 mm 3 m/S 752 mmHg 98%
04:00 +1°C° 0.2 mm 2 m/S 752 mmHg 98%
05:00 +1°C° 0.2 mm 2 m/S 752 mmHg 98%
06:00 +1°C° 0.2 mm 2 m/S 752 mmHg 98%
07:00 +1°C° 0.1 mm 2 m/S 753 mmHg 98%
08:00 +1°C° 0.1 mm 2 m/S 753 mmHg 98%
09:00 +1°C° 0.1 mm 2 m/S 754 mmHg 98%
10:00 +1°C° 0 mm 2 m/S 754 mmHg 98%
11:00 +1°C° 0 mm 2 m/S 754 mmHg 97%
12:00 +1°C° 0 mm 2 m/S 755 mmHg 97%
13:00 +1°C° 0 mm 2 m/S 755 mmHg 97%
14:00 +1°C° 0 mm 2 m/S 756 mmHg 97%
15:00 +1°C° 0 mm 2 m/S 756 mmHg 97%
16:00 +1°C° 0 mm 2 m/S 757 mmHg 98%
17:00 +1°C° 0 mm 2 m/S 757 mmHg 98%
18:00 +1°C° 0 mm 2 m/S 758 mmHg 98%
19:00 +1°C° 0 mm 2 m/S 758 mmHg 98%
20:00 +1°C° 0 mm 2 m/S 758 mmHg 97%
21:00 +1°C° 0 mm 2 m/S 759 mmHg 97%
22:00 +2°C° 0 mm 1 m/S 759 mmHg 97%
23:00 +2°C° 0 mm 1 m/S 760 mmHg 97%

29 November, Sonntag

Zeit Temperatur Niederschläge Wind Luftdruck Luftfeuchtigkeit
00:00 +2°C° 0 mm 1 m/S 760 mmHg 96%
01:00 +2°C° 0 mm 1 m/S 760 mmHg 97%
02:00 +2°C° 0 mm 1 m/S 761 mmHg 97%
03:00 +1°C° 0 mm 2 m/S 761 mmHg 98%
04:00 +1°C° 0.1 mm 2 m/S 761 mmHg 98%
05:00 +1°C° 0.1 mm 2 m/S 761 mmHg 98%
06:00 +1°C° 0.1 mm 2 m/S 761 mmHg 98%
07:00 +1°C° 0.1 mm 2 m/S 762 mmHg 97%
08:00 0°C° 0.1 mm 3 m/S 762 mmHg 97%
09:00 0°C° 0.1 mm 3 m/S 762 mmHg 96%
10:00 0°C° 0 mm 3 m/S 762 mmHg 95%
11:00 -1°C° 0 mm 4 m/S 762 mmHg 94%
12:00 -1°C° 0 mm 4 m/S 763 mmHg 93%
13:00 -1°C° 0 mm 4 m/S 763 mmHg 93%
14:00 0°C° 0 mm 3 m/S 763 mmHg 93%
15:00 +1°C° 0 mm 3 m/S 762 mmHg 94%
16:00 +1°C° 0 mm 3 m/S 763 mmHg 94%
17:00 +1°C° 0 mm 3 m/S 763 mmHg 95%
18:00 0°C° 0 mm 4 m/S 763 mmHg 95%
19:00 0°C° 0 mm 4 m/S 763 mmHg 95%
20:00 0°C° 0 mm 4 m/S 763 mmHg 95%
21:00 0°C° 0 mm 4 m/S 763 mmHg 94%
22:00 0°C° 0 mm 4 m/S 763 mmHg 93%
23:00 0°C° 0 mm 4 m/S 763 mmHg 92%

30 November, Montag

Zeit Temperatur Niederschläge Wind Luftdruck Luftfeuchtigkeit
00:00 0°C° 0 mm 4 m/S 763 mmHg 92%
01:00 0°C° 0 mm 4 m/S 763 mmHg 90%
02:00 -1°C° 0 mm 4 m/S 763 mmHg 88%
03:00 -1°C° 0 mm 4 m/S 763 mmHg 87%
04:00 -1°C° 0 mm 4 m/S 763 mmHg 87%
05:00 -1°C° 0 mm 4 m/S 763 mmHg 87%
06:00 -1°C° 0 mm 4 m/S 763 mmHg 87%
07:00 -2°C° 0 mm 4 m/S 763 mmHg 87%
08:00 -2°C° 0 mm 4 m/S 763 mmHg 87%
09:00 -2°C° 0 mm 4 m/S 763 mmHg 87%
10:00 -2°C° 0 mm 4 m/S 763 mmHg 87%
11:00 -2°C° 0 mm 4 m/S 763 mmHg 87%
12:00 -1°C° 0 mm 4 m/S 763 mmHg 87%
13:00 -1°C° 0 mm 4 m/S 762 mmHg 87%
14:00 -1°C° 0 mm 4 m/S 762 mmHg 87%
15:00 -1°C° 0 mm 4 m/S 762 mmHg 88%
16:00 -1°C° 0 mm 5 m/S 762 mmHg 88%
17:00 -1°C° 0 mm 5 m/S 762 mmHg 88%
18:00 -1°C° 0 mm 5 m/S 762 mmHg 88%
19:00 -1°C° 0 mm 5 m/S 762 mmHg 88%
20:00 -1°C° 0 mm 5 m/S 762 mmHg 89%
21:00 -1°C° 0 mm 5 m/S 761 mmHg 89%
22:00 -1°C° 0.1 mm 5 m/S 761 mmHg 90%
23:00 -1°C° 0.1 mm 5 m/S 761 mmHg 91%

1 Dezember, Dienstag

Zeit Temperatur Niederschläge Wind Luftdruck Luftfeuchtigkeit
00:00 -1°C° 0.1 mm 5 m/S 761 mmHg 92%
01:00 -1°C° 0.3 mm 5 m/S 761 mmHg 93%
02:00 -1°C° 0.3 mm 5 m/S 761 mmHg 94%
03:00 -2°C° 0.3 mm 5 m/S 761 mmHg 96%
04:00 -1°C° 0.3 mm 5 m/S 761 mmHg 96%
05:00 -1°C° 0.3 mm 5 m/S 761 mmHg 96%
06:00 -1°C° 0.3 mm 4 m/S 761 mmHg 96%
07:00 -1°C° 0.1 mm 4 m/S 761 mmHg 95%
08:00 -1°C° 0.1 mm 4 m/S 762 mmHg 94%
09:00 -1°C° 0.1 mm 4 m/S 762 mmHg 93%
10:00 0°C° 0.1 mm 3 m/S 762 mmHg 94%
11:00 0°C° 0.1 mm 3 m/S 762 mmHg 95%
12:00 0°C° 0.1 mm 3 m/S 762 mmHg 95%
13:00 0°C° 0.1 mm 3 m/S 762 mmHg 95%
14:00 0°C° 0.1 mm 3 m/S 762 mmHg 95%
15:00 0°C° 0.1 mm 3 m/S 762 mmHg 95%
16:00 0°C° 0.1 mm 3 m/S 762 mmHg 94%
17:00 0°C° 0.1 mm 3 m/S 762 mmHg 93%
18:00 -1°C° 0.1 mm 3 m/S 762 mmHg 92%
19:00 -1°C° 0 mm 3 m/S 762 mmHg 91%
20:00 -1°C° 0 mm 3 m/S 762 mmHg 90%
21:00 -1°C° 0 mm 3 m/S 762 mmHg 89%
22:00 -1°C° 0 mm 3 m/S 762 mmHg 89%
23:00 -1°C° 0 mm 3 m/S 762 mmHg 88%
Mehr zeigen

Wir brauchen deine Erlaubnis

Meteoprog und unser Service Anbieter werden persönliche Daten aufbewahren, so wie Cookies, Geräte Bezeichnung oder ähnliche Technologien von deinem Gerät und Prozess, so wie Persönliche Daten Inhalte und Werbungen, genauso wie social Media und den Verkehr zu analysieren.

  • Aufbewahrung und/oder Zugang zu deiner Geräte Informationen.

    Cookies, Geräte Bezeichnung oder andere Informationen, können aufbewahrt oder Zugang zu deinem Gerät erhalten, für den Grund, der oben angegeben wird.

  • Personalisierte Werbung und Inhalte, Messungen, Einblick in das Publikum und Produkt Entwicklung.

    Werbungen und Inhalte können personalisiert werden, basierend auf ein Profil. Mehr Daten können besser personalisierte Werbungen und Inhalte hinzufügen. Werbung und Inhalte können gezeigt und gemessen werden. Einblicke über das Publikum, welche die Werbung gesehen haben und den Inhalt, können abgeleitet werden. So wie Daten können genutzt werden, um es zu verbessern oder die Benutzer Erfahrung zu verbessern das System und die Software.

Wenn du “Ich stimme zu” klickst, erlaubst du uns, die Cookies zu benutzen die Geräte Bezeichnung, den Web oder ähnliche Technologien zu benutzen. Deine Settings, können in deinem Gerät bei deinem Browser geändert werden.

Für den bestimmten Zweck, berechtigten Interessen beruhen darauf, mehr als auf den Inhalt. Du kannst mehr darüber in unseren Privaten und Cookie Politik lesen.